period_start,C,m1,H,J0,J1,J2,J3,J4,J5,JA,JB,JC,JD,JJ,JK,JN,#
2014-09-19 00:04:27,0.00,0.33,0.00,22.68,26.34,29.06,9.49,40.41,1009.52,2041.99,3342.05,3250.99,3488.01,499.88,493.84,38.52,0000 0000 0000 0000 000000
2014-09-19 00:09:28,-0.00,0.33,0.00,22.66,26.34,29.06,9.54,40.46,1009.62,2041.99,3342.13,3250.99,3488.01,500.23,494.09,38.56,0000 0000 0000 0000 000000
2014-09-19 00:14:29,0.00,0.33,0.00,22.68,26.33,29.08,9.60,40.56,1009.55,2041.99,3342.19,3251.00,3488.02,499.80,493.71,38.60,0000 0000 0000 0000 000000
2014-09-19 00:19:29,0.00,0.33,0.00,22.66,26.33,29.07,9.62,40.35,1009.48,2041.99,3342.04,3251.00,3488.01,500.24,494.01,38.64,0000 0000 0000 0000 000000
2014-09-19 00:24:30,-0.00,0.33,0.00,22.72,26.32,29.02,9.52,40.42,1009.47,2041.99,3342.10,3251.00,3488.01,500.09,493.74,38.68,0000 0000 0000 0000 000000
2014-09-19 00:29:31,-0.00,0.33,0.00,22.85,26.32,28.91,9.55,40.40,1009.68,2041.99,3342.36,3251.01,3488.04,500.24,493.80,38.72,0000 0000 0000 0000 000000
2014-09-19 00:34:32,-0.00,0.33,0.00,22.89,26.32,28.89,9.51,40.48,1009.75,2041.99,3342.35,3251.00,3488.05,499.54,493.12,38.77,0000 0000 0000 0000 000000
2014-09-19 00:39:33,0.00,0.33,0.00,22.83,26.32,28.89,9.49,40.42,1009.66,2041.99,3342.38,3251.00,3488.02,500.16,493.80,38.81,0000 0000 0000 0000 000000
2014-09-19 00:44:34,-0.00,0.33,0.00,22.79,26.32,28.94,9.52,40.45,1009.62,2041.99,3342.36,3251.00,3488.04,500.16,493.63,38.85,0000 0000 0000 0000 000000
2014-09-19 00:49:35,0.00,0.33,0.00,22.84,26.32,29.05,9.49,40.38,1009.72,2041.99,3342.23,3251.00,3488.02,500.03,493.58,38.89,0000 0000 0000 0000 000000
2014-09-19 00:54:35,-0.01,0.33,0.00,22.90,26.32,29.08,9.58,40.52,1009.75,2041.99,3342.59,3251.00,3488.05,500.62,494.16,38.93,0000 0000 0000 0000 000000
2014-09-19 00:59:37,-0.01,0.33,0.00,22.94,26.32,29.12,9.47,40.45,1009.78,2042.00,3342.82,3251.02,3488.18,499.92,493.37,38.97,0000 0000 0000 0000 000000
2014-09-19 01:04:38,-0.00,0.33,0.00,22.95,26.32,29.04,9.51,40.45,1009.78,2042.01,3342.83,3251.02,3488.31,500.06,493.54,39.02,0000 0000 0000 0000 000000
2014-09-19 01:09:39,0.00,0.32,0.00,22.96,26.32,28.96,9.51,40.36,1009.78,2042.00,3342.92,3251.02,3488.41,500.13,493.44,39.06,0000 0000 0000 0000 000000
2014-09-19 01:14:40,0.00,0.32,0.00,22.96,26.32,28.91,9.48,40.50,1009.77,2042.01,3342.90,3251.02,3488.45,500.18,493.56,39.10,0000 0000 0000 0000 000000
2014-09-19 01:19:41,-0.00,0.32,0.00,22.94,26.32,28.90,9.48,40.46,1009.78,2042.00,3342.89,3251.02,3488.38,499.67,493.07,39.14,0000 0000 0000 0000 000000
2014-09-19 01:24:42,0.01,0.33,0.00,22.96,26.32,28.87,9.54,40.21,1009.78,2042.01,3342.69,3251.02,3488.17,500.38,493.90,39.18,0000 0000 0000 0000 000000
2014-09-19 01:29:43,-0.00,0.33,0.00,22.90,26.32,28.86,9.45,40.31,1009.78,2042.01,3342.81,3251.01,3488.22,499.94,493.48,39.22,0000 0000 0000 0000 000000
2014-09-19 01:34:44,-0.00,0.33,0.00,22.93,26.32,28.86,9.51,40.30,1009.78,2042.01,3342.86,3251.03,3488.25,499.52,492.95,39.27,0000 0000 0000 0000 000000
2014-09-19 01:39:45,-0.01,0.32,0.00,22.92,26.32,28.82,9.42,40.42,1009.78,2042.00,3342.92,3251.01,3488.35,499.67,493.21,39.31,0000 0000 0000 0000 000000
2014-09-19 01:44:46,0.00,0.32,0.00,22.92,26.32,28.82,9.52,40.34,1009.78,2042.01,3342.97,3251.00,3488.34,500.12,493.56,39.35,0000 0000 0000 0000 000000
2014-09-19 01:49:47,0.00,0.32,0.00,22.95,26.32,28.82,9.47,40.46,1009.79,2042.01,3342.95,3251.01,3488.35,500.15,493.69,39.39,0000 0000 0000 0000 000000
2014-09-19 01:54:48,0.01,0.33,0.00,22.85,26.32,28.81,9.47,40.13,1009.78,2042.00,3342.79,3251.00,3488.15,500.32,493.93,39.43,0000 0000 0000 0000 000000
2014-09-19 01:59:49,-0.00,0.33,0.00,22.88,26.32,28.96,9.43,40.33,1009.78,2042.00,3342.73,3251.00,3488.05,499.50,493.12,39.47,0000 0000 0000 0000 000000
2014-09-19 02:04:50,0.00,0.33,0.00,22.88,26.32,29.04,9.57,40.49,1009.78,2042.01,3342.74,3251.01,3488.08,500.53,494.03,39.52,0000 0000 0000 0000 000000
2014-09-19 02:09:51,-0.01,0.33,0.00,22.93,26.32,29.14,9.49,40.48,1009.78,2042.00,3342.81,3251.00,3488.12,500.27,493.79,39.56,0000 0000 0000 0000 000000
2014-09-19 02:14:52,0.00,0.32,0.00,22.94,26.32,29.15,9.55,40.63,1009.78,2042.00,3342.97,3251.00,3488.26,499.72,493.38,39.60,0000 0000 0000 0000 000000
2014-09-19 02:19:54,-0.00,0.32,0.00,22.98,26.33,29.11,9.54,40.51,1009.79,2042.01,3342.99,3251.00,3488.56,500.33,493.69,39.64,0000 0000 0000 0000 000000
2014-09-19 02:24:55,0.00,0.32,0.00,22.99,26.35,29.07,9.55,40.56,1009.79,2042.00,3342.99,3251.00,3488.43,500.17,493.64,39.68,0000 0000 0000 0000 000000
2014-09-19 02:29:56,0.00,0.32,0.00,23.02,26.35,28.99,9.55,40.60,1009.79,2042.00,3342.97,3250.99,3488.27,500.09,493.57,39.72,0000 0000 0000 0000 000000
2014-09-19 02:34:57,-0.00,0.33,0.00,23.02,26.36,28.96,9.53,40.52,1009.78,2042.00,3342.96,3250.99,3488.16,500.12,493.64,39.77,0000 0000 0000 0000 000000
2014-09-19 02:39:58,0.00,0.33,0.00,23.05,26.37,28.95,9.52,40.44,1009.78,2042.00,3342.98,3250.99,3488.08,500.23,493.72,39.81,0000 0000 0000 0000 000000
2014-09-19 02:44:59,0.00,0.33,0.00,23.03,26.37,28.93,9.46,40.58,1009.78,2042.00,3342.95,3250.98,3488.04,499.56,493.07,39.85,0000 0000 0000 0000 000000
2014-09-19 02:50:01,0.00,0.33,0.00,23.07,26.39,28.93,9.48,40.43,1009.78,2042.00,3342.89,3250.97,3488.02,500.20,493.36,39.89,0000 0000 0000 0000 000000
2014-09-19 02:55:01,0.00,0.33,0.00,23.01,26.40,28.94,9.50,40.42,1009.79,2042.00,3342.79,3250.93,3488.00,499.98,493.45,39.93,0000 0000 0000 0000 000000
2014-09-19 03:00:02,0.01,0.33,0.00,22.97,26.41,28.95,9.45,40.42,1009.79,2042.00,3342.85,3250.64,3488.00,499.86,493.43,39.97,0000 0000 0000 0000 000000
2014-09-19 03:05:04,0.01,0.33,0.00,23.01,26.42,28.96,9.46,40.48,1009.80,2042.00,3342.80,3250.26,3488.00,500.21,493.39,40.02,0000 0000 0000 0000 000000
2014-09-19 03:10:05,0.02,0.33,0.00,22.99,26.45,28.98,9.54,40.34,1009.81,2041.98,3342.11,3250.02,3487.94,500.20,493.54,40.06,0000 0000 0000 0000 000000
2014-09-19 03:15:06,0.00,0.33,0.00,22.95,26.46,28.99,9.50,40.30,1009.80,2041.95,3342.05,3250.00,3487.85,499.63,493.12,40.10,0000 0000 0000 0000 000000
2014-09-19 03:20:08,0.00,0.33,0.00,22.97,26.48,29.02,9.49,40.32,1009.81,2041.93,3342.02,3250.00,3487.51,500.19,493.42,40.14,0000 0000 0000 0000 000000
2014-09-19 03:25:09,0.01,0.33,0.00,22.99,26.50,29.05,9.55,40.34,1009.86,2041.95,3342.01,3249.99,3487.20,500.11,493.60,40.18,0000 0000 0000 0000 000000
2014-09-19 03:30:10,-0.01,0.33,0.00,22.95,26.52,29.07,9.49,40.19,1009.92,2041.82,3342.00,3249.97,3487.13,499.70,493.24,40.22,0000 0000 0000 0000 000000
2014-09-19 03:35:11,-0.05,0.33,0.00,22.93,26.55,29.09,9.62,40.41,1010.05,2041.43,3342.00,3249.94,3487.05,500.30,493.99,40.27,0000 0000 0000 0000 000000
2014-09-19 03:40:12,-0.01,0.32,0.00,22.94,26.56,29.10,9.53,40.41,1010.17,2041.19,3341.99,3249.67,3487.00,499.84,493.49,40.31,0000 0000 0000 0000 000000
2014-09-19 03:45:13,-0.00,0.32,0.00,22.88,26.57,29.12,9.51,40.52,1010.09,2041.04,3341.99,3249.16,3487.00,500.18,493.82,40.35,0000 0000 0000 0000 000000
2014-09-19 03:50:14,0.00,0.32,0.00,22.83,26.60,29.16,9.52,40.38,1010.17,2041.01,3341.99,3249.02,3486.98,500.16,493.98,40.39,0000 0000 0000 0000 000000
2014-09-19 03:55:15,0.01,0.32,0.00,22.79,26.61,29.18,9.48,40.42,1010.26,2041.00,3341.78,3249.00,3486.88,499.40,493.36,40.43,0000 0000 0000 0000 000000
2014-09-19 04:00:16,0.02,0.33,0.00,22.76,26.63,29.20,9.53,40.52,1010.27,2041.00,3341.53,3249.00,3486.48,500.05,494.13,40.47,0000 0000 0000 0000 000000
2014-09-19 04:05:17,0.00,0.33,0.00,22.72,26.65,29.22,9.55,40.44,1010.27,2041.00,3341.07,3248.98,3486.08,499.83,493.82,40.52,0000 0000 0000 0000 000000
2014-09-19 04:10:18,0.00,0.33,0.00,22.67,26.66,29.25,9.52,40.35,1010.27,2041.00,3341.01,3248.97,3486.01,499.76,493.85,40.56,0000 0000 0000 0000 000000
2014-09-19 04:15:19,0.01,0.33,0.00,22.69,26.68,29.27,9.51,40.43,1010.28,2041.00,3340.99,3248.74,3486.00,500.06,494.30,40.60,0000 0000 0000 0000 000000
2014-09-19 04:20:20,0.01,0.33,0.00,22.74,26.70,29.30,9.59,40.42,1010.27,2040.98,3340.93,3248.26,3485.98,500.35,494.34,40.64,0000 0000 0000 0000 000000
2014-09-19 04:25:21,0.01,0.33,0.00,22.79,26.71,29.32,9.55,40.39,1010.29,2040.97,3340.80,3248.06,3485.86,500.26,494.19,40.68,0000 0000 0000 0000 000000
2014-09-19 04:30:23,0.01,0.33,0.00,22.85,26.72,29.33,9.52,40.44,1010.29,2040.92,3340.18,3248.01,3485.24,499.89,493.74,40.72,0000 0000 0000 0000 000000
2014-09-19 04:35:24,-0.02,0.33,0.00,22.89,26.75,29.35,9.51,40.55,1010.28,2040.90,3340.36,3248.00,3485.34,499.55,493.38,40.77,0000 0000 0000 0000 000000
2014-09-19 04:40:25,-0.02,0.33,0.00,22.90,26.76,29.36,9.54,40.52,1010.33,2040.58,3340.11,3248.00,3485.06,499.73,493.65,40.81,0000 0000 0000 0000 000000
2014-09-19 04:45:27,-0.02,0.33,0.00,22.96,26.77,29.39,9.54,40.38,1010.55,2040.36,3340.02,3248.00,3485.00,500.11,493.93,40.85,0000 0000 0000 0000 000000
2014-09-19 04:50:28,-0.02,0.33,0.00,22.96,26.80,29.43,9.56,40.46,1010.64,2040.11,3340.00,3247.96,3485.00,499.82,493.65,40.89,0000 0000 0000 0000 000000
2014-09-19 04:55:29,0.00,0.32,0.00,22.99,26.80,29.45,9.59,40.46,1010.65,2040.05,3340.00,3247.83,3484.98,500.19,493.95,40.93,0000 0000 0000 0000 000000
2014-09-19 05:00:30,0.01,0.33,0.00,23.02,26.82,29.46,9.53,40.59,1010.65,2040.05,3340.00,3247.43,3484.98,500.32,494.14,40.97,0000 0000 0000 0000 000000
2014-09-19 05:05:31,-0.01,0.33,0.00,23.04,26.82,29.48,9.53,40.47,1010.70,2040.03,3340.00,3247.50,3484.98,500.20,493.95,41.02,0000 0000 0000 0000 000000
2014-09-19 05:10:33,0.01,0.33,0.00,23.04,26.84,29.48,9.52,40.42,1010.73,2040.01,3339.98,3247.15,3484.90,500.42,494.16,41.06,0000 0000 0000 0000 000000
2014-09-19 05:15:33,0.01,0.33,0.00,23.04,26.85,29.49,9.50,40.52,1010.72,2040.01,3339.91,3247.05,3484.66,500.01,493.60,41.10,0000 0000 0000 0000 000000
2014-09-19 05:20:35,0.00,0.33,0.00,23.08,26.85,29.49,9.60,40.41,1010.74,2040.00,3339.82,3247.05,3484.49,499.79,493.49,41.14,0000 0000 0000 0000 000000
2014-09-19 05:25:36,0.01,0.33,0.00,23.05,26.85,29.49,9.57,40.49,1010.75,2040.01,3339.65,3247.04,3484.30,500.21,493.90,41.18,0000 0000 0000 0000 000000
2014-09-19 05:30:37,0.01,0.33,0.00,23.06,26.85,29.50,9.53,40.54,1010.75,2040.01,3339.43,3247.02,3484.16,500.52,494.12,41.22,0000 0000 0000 0000 000000
2014-09-19 05:35:38,0.00,0.33,0.00,23.08,26.85,29.51,9.55,40.21,1010.75,2040.00,3339.12,3247.01,3484.03,500.07,493.84,41.27,0000 0000 0000 0000 000000
2014-09-19 05:40:39,-0.00,0.33,0.00,23.08,26.85,29.54,9.53,40.57,1010.74,2040.02,3339.24,3247.02,3484.08,500.17,493.78,41.31,0000 0000 0000 0000 000000
2014-09-19 05:45:40,-0.01,0.33,0.00,23.06,26.83,29.54,9.57,40.43,1010.71,2040.01,3339.69,3247.04,3484.33,499.98,493.57,41.35,0000 0000 0000 0000 000000
2014-09-19 05:50:41,-0.00,0.33,0.00,23.07,26.82,29.54,9.49,40.47,1010.73,2040.02,3339.70,3247.09,3484.44,500.00,493.73,41.39,0000 0000 0000 0000 000000
2014-09-19 05:55:42,-0.01,0.33,0.00,23.10,26.82,29.54,9.56,40.41,1010.71,2040.05,3339.81,3247.20,3484.67,500.44,494.16,41.43,0000 0000 0000 0000 000000
2014-09-19 06:00:43,0.00,0.33,0.00,23.08,26.80,29.52,9.51,40.58,1010.74,2040.07,3339.94,3247.37,3484.90,500.32,493.95,41.47,0000 0000 0000 0000 000000
2014-09-19 06:05:44,0.00,0.33,0.00,23.07,26.80,29.51,9.55,40.48,1010.76,2040.11,3339.94,3247.55,3484.94,500.02,493.83,41.52,0000 0000 0000 0000 000000
2014-09-19 06:10:45,-0.00,0.33,0.00,23.09,26.79,29.51,9.55,40.52,1010.76,2040.17,3339.84,3247.65,3484.90,500.17,493.76,41.56,0000 0000 0000 0000 000000
2014-09-19 06:15:46,0.01,0.33,0.00,23.08,26.77,29.52,9.51,40.59,1010.76,2040.31,3339.93,3247.91,3484.97,499.82,493.51,41.60,0000 0000 0000 0000 000000
2014-09-19 06:20:48,0.01,0.33,0.00,23.07,26.77,29.48,9.39,40.52,1010.76,2040.45,3339.98,3247.93,3484.99,499.42,493.26,41.64,0000 0000 0000 0000 000000
2014-09-19 06:25:49,0.02,0.33,0.00,23.06,26.75,29.46,9.50,40.52,1010.76,2040.55,3339.99,3247.96,3484.99,499.84,493.53,41.68,0000 0000 0000 0000 000000
2014-09-19 06:30:50,0.00,0.33,0.00,23.03,26.75,29.45,9.54,40.58,1010.77,2040.70,3340.00,3247.97,3484.99,500.19,493.89,41.72,0000 0000 0000 0000 000000
2014-09-19 06:35:51,0.02,0.33,0.00,23.09,26.73,29.44,9.54,40.67,1010.77,2040.77,3340.01,3247.97,3485.00,500.04,493.69,41.77,0000 0000 0000 0000 000000
2014-09-19 06:40:52,-0.02,0.33,0.00,23.15,26.72,29.43,9.55,40.58,1010.77,2040.74,3340.01,3247.98,3485.00,499.85,493.44,41.81,0000 0000 0000 0000 000000
2014-09-19 06:45:53,0.02,0.33,0.00,23.05,26.70,29.52,9.55,40.48,1010.77,2040.89,3340.02,3247.99,3485.03,500.32,494.12,41.85,0000 0000 0000 0000 000000
2014-09-19 06:50:54,0.00,0.33,0.00,23.00,26.69,29.57,9.53,40.57,1010.80,2040.94,3340.05,3247.99,3485.06,499.88,493.68,41.89,0000 0000 0000 0000 000000
2014-09-19 06:55:55,-0.02,0.33,0.00,22.99,26.67,29.57,9.51,40.60,1010.79,2040.90,3340.26,3247.99,3485.20,499.47,493.44,41.93,0000 0000 0000 0000 000000
2014-09-19 07:00:56,-0.01,0.33,0.00,23.00,26.66,29.54,9.52,40.58,1010.94,2040.95,3340.88,3247.99,3485.83,499.69,493.54,41.97,0000 0000 0000 0000 000000
2014-09-19 07:05:57,-0.00,0.33,0.00,23.04,26.65,29.50,9.51,40.57,1011.07,2040.97,3340.85,3248.00,3485.89,499.83,493.70,42.02,0000 0000 0000 0000 000000
2014-09-19 07:10:58,0.00,0.33,0.00,23.04,26.63,29.48,9.53,40.56,1011.13,2040.98,3340.90,3248.01,3485.94,500.10,494.10,42.06,0000 0000 0000 0000 000000
2014-09-19 07:15:59,0.01,0.33,0.00,22.99,26.62,29.48,9.49,40.52,1011.18,2040.97,3340.54,3248.01,3485.76,500.09,494.19,42.10,0000 0000 0000 0000 000000
2014-09-19 07:21:01,0.01,0.33,0.00,23.00,26.60,29.46,9.44,40.44,1011.22,2040.98,3340.28,3248.00,3485.57,499.79,494.07,42.14,0000 0000 0000 0000 000000
2014-09-19 07:26:02,-0.00,0.33,0.00,23.02,26.59,29.44,9.49,40.63,1011.24,2040.98,3340.27,3248.00,3485.68,499.54,493.59,42.18,0000 0000 0000 0000 000000
2014-09-19 07:31:03,-0.01,0.33,0.00,22.99,26.57,29.44,9.52,40.53,1011.24,2040.99,3340.52,3248.01,3485.89,500.23,494.19,42.22,0000 0000 0000 0000 000000
2014-09-19 07:36:04,-0.00,0.33,0.00,23.03,26.57,29.43,9.55,40.58,1011.25,2040.99,3340.73,3248.01,3485.94,500.67,494.75,42.27,0000 0000 0000 0000 000000
2014-09-19 07:41:05,0.00,0.33,0.00,22.96,26.55,29.38,9.51,40.60,1011.25,2040.99,3340.83,3248.03,3485.97,500.05,494.23,42.31,0000 0000 0000 0000 000000
2014-09-19 07:46:06,0.00,0.33,0.00,22.94,26.54,29.38,9.47,40.61,1011.26,2040.99,3340.75,3248.05,3485.98,499.38,493.68,42.35,0000 0000 0000 0000 000000
2014-09-19 07:51:08,-0.00,0.33,0.00,22.98,26.52,29.35,9.53,40.48,1011.28,2040.99,3340.67,3248.17,3485.99,500.20,494.27,42.39,0000 0000 0000 0000 000000
2014-09-19 07:56:09,-0.01,0.33,0.00,23.00,26.51,29.32,9.50,40.28,1011.47,2040.99,3340.86,3248.49,3485.99,500.20,494.13,42.43,0000 0000 0000 0000 000000
2014-09-19 08:01:09,0.00,0.33,0.00,22.95,26.50,29.16,9.49,40.43,1011.66,2040.99,3340.84,3248.32,3485.99,499.79,494.30,42.47,0000 0000 0000 0000 000000
2014-09-19 08:06:11,-0.01,0.33,0.00,22.94,26.49,29.08,9.57,40.34,1011.73,2040.99,3340.94,3248.64,3485.99,500.25,494.73,42.52,0000 0000 0000 0000 000000
2014-09-19 08:11:12,-0.01,0.33,0.00,22.98,26.47,28.98,9.55,40.32,1011.73,2040.99,3340.99,3248.88,3485.99,500.56,494.84,42.56,0000 0000 0000 0000 000000
2014-09-19 08:16:13,0.00,0.33,0.00,22.90,26.47,28.91,9.49,40.37,1011.73,2041.00,3340.99,3248.95,3486.00,499.81,494.18,42.60,0000 0000 0000 0000 000000
2014-09-19 08:21:14,0.00,0.33,0.00,22.92,26.45,28.91,9.53,40.46,1011.73,2041.01,3340.98,3248.96,3486.00,500.28,494.76,42.64,0000 0000 0000 0000 000000
2014-09-19 08:26:15,0.00,0.33,0.00,22.95,26.45,28.91,9.55,40.38,1011.72,2041.03,3340.98,3248.96,3486.01,499.94,494.33,42.68,0000 0000 0000 0000 000000
2014-09-19 08:31:16,-0.01,0.33,0.00,22.89,26.44,28.91,9.50,40.26,1011.66,2041.02,3340.98,3248.98,3486.00,499.72,494.17,42.72,0000 0000 0000 0000 000000
2014-09-19 08:36:17,-0.00,0.33,0.00,22.84,26.42,28.89,9.60,40.26,1011.63,2041.04,3340.99,3248.98,3486.01,500.28,494.85,42.77,0000 0000 0000 0000 000000
2014-09-19 08:41:18,0.00,0.33,0.00,22.87,26.42,28.89,9.56,40.29,1011.67,2041.06,3340.98,3248.97,3486.00,500.17,494.64,42.81,0000 0000 0000 0000 000000
2014-09-19 08:46:19,0.00,0.33,0.00,22.87,26.42,28.90,9.53,40.27,1011.71,2041.12,3340.99,3248.99,3486.04,499.98,494.57,42.85,0000 0000 0000 0000 000000
2014-09-19 08:51:21,-0.00,0.33,0.00,22.88,26.40,28.92,9.55,40.33,1011.72,2041.08,3340.99,3248.99,3486.04,500.13,494.64,42.89,0000 0000 0000 0000 000000
2014-09-19 08:56:21,0.01,0.33,0.00,22.80,26.40,28.96,9.53,40.27,1011.72,2041.12,3340.99,3248.99,3486.05,500.06,494.65,42.93,0000 0000 0000 0000 000000
2014-09-19 09:01:22,0.01,0.33,0.00,22.86,26.40,29.00,9.59,40.48,1011.73,2041.21,3340.99,3248.99,3486.07,499.87,494.46,42.97,0000 0000 0000 0000 000000
2014-09-19 09:06:23,0.02,0.33,0.00,22.89,26.38,28.87,9.60,40.37,1011.72,2041.41,3340.99,3248.99,3486.27,499.77,494.50,43.02,0000 0000 0000 0000 000000
2014-09-19 09:11:24,0.03,0.33,0.00,22.85,26.37,28.93,9.52,40.42,1011.73,2041.77,3340.99,3249.00,3486.62,499.84,494.40,43.06,0000 0000 0000 0000 000000
2014-09-19 09:16:26,0.01,0.33,0.00,22.86,26.37,28.86,9.53,40.46,1011.73,2041.90,3340.99,3249.00,3486.68,499.90,494.57,43.10,0000 0000 0000 0000 000000
2014-09-19 09:21:27,-0.00,0.33,0.00,22.84,26.36,28.91,9.49,40.31,1011.73,2041.83,3340.99,3249.00,3486.46,499.53,494.30,43.14,0000 0000 0000 0000 000000
2014-09-19 09:26:28,0.01,0.33,0.00,22.87,26.35,28.86,9.46,40.35,1011.73,2041.85,3340.99,3249.00,3486.38,499.55,494.11,43.18,0000 0000 0000 0000 000000
2014-09-19 09:31:29,0.01,0.33,0.00,22.87,26.35,28.86,9.52,40.44,1011.73,2041.93,3340.99,3249.01,3486.36,499.99,494.47,43.22,0000 0000 0000 0000 000000
2014-09-19 09:36:30,-0.00,0.33,0.00,22.88,26.35,28.82,9.57,40.39,1011.73,2041.91,3340.99,3249.00,3486.13,500.41,494.85,43.27,0000 0000 0000 0000 000000
2014-09-19 09:41:31,0.00,0.33,0.00,22.86,26.33,28.82,9.59,40.25,1011.73,2041.95,3340.99,3249.02,3486.32,500.49,495.06,43.31,0000 0000 0000 0000 000000
2014-09-19 09:46:32,0.00,0.33,0.00,22.91,26.32,28.80,9.55,40.33,1011.73,2041.97,3340.98,3249.02,3486.34,500.48,494.95,43.35,0000 0000 0000 0000 000000
2014-09-19 09:51:34,0.00,0.33,0.00,22.87,26.32,28.78,9.46,40.29,1011.73,2041.99,3340.98,3249.04,3486.38,499.63,494.43,43.39,0000 0000 0000 0000 000000
2014-09-19 09:56:35,-0.00,0.33,0.00,22.89,26.32,28.78,9.49,40.18,1011.73,2041.99,3340.99,3249.06,3486.47,499.81,494.42,43.43,0000 0000 0000 0000 000000
2014-09-19 10:01:36,-0.00,0.33,0.00,22.86,26.32,28.78,9.49,40.00,1011.73,2041.98,3340.99,3249.03,3486.61,500.00,494.42,43.47,0000 0000 0000 0000 000000
2014-09-19 10:06:37,-0.01,0.33,0.00,22.83,26.31,28.78,9.62,40.21,1011.74,2041.97,3340.99,3249.06,3486.71,500.29,494.77,43.52,0000 0000 0000 0000 000000
2014-09-19 10:11:38,-0.00,0.33,0.00,22.84,26.30,28.77,9.52,40.13,1011.73,2041.99,3340.99,3249.17,3486.87,500.64,495.09,43.56,0000 0000 0000 0000 000000
2014-09-19 10:16:39,0.01,0.33,0.00,22.87,26.30,28.78,9.53,40.29,1011.74,2041.99,3340.99,3249.08,3486.77,500.31,494.73,43.60,0000 0000 0000 0000 000000
2014-09-19 10:21:39,0.00,0.33,0.00,22.82,26.30,28.79,9.53,40.18,1011.74,2041.99,3340.99,3249.09,3486.74,499.94,494.58,43.64,0000 0000 0000 0000 000000
2014-09-19 10:26:40,-0.00,0.33,0.00,22.77,26.30,28.76,9.47,39.98,1011.74,2041.99,3340.99,3249.12,3486.62,499.89,494.60,43.68,0000 0000 0000 0000 000000
2014-09-19 10:31:41,0.00,0.33,0.00,22.84,26.30,28.88,9.58,40.23,1011.74,2041.99,3340.98,3249.09,3486.39,499.71,494.13,43.72,0000 0000 0000 0000 000000
2014-09-19 10:36:43,0.00,0.33,0.00,22.81,26.30,28.85,9.44,40.21,1011.75,2041.99,3340.97,3249.04,3486.30,499.48,494.21,43.76,0000 0000 0000 0000 000000
2014-09-19 10:41:44,0.00,0.33,0.00,22.81,26.29,28.81,9.53,40.13,1011.73,2041.99,3340.98,3249.10,3486.33,500.18,494.81,43.81,0000 0000 0000 0000 000000
2014-09-19 10:46:44,0.00,0.33,0.00,22.81,26.28,28.79,9.51,40.08,1011.73,2041.99,3340.97,3249.04,3486.15,500.01,494.64,43.85,0000 0000 0000 0000 000000
2014-09-19 10:51:45,-0.00,0.33,0.00,22.79,26.27,28.78,9.53,40.33,1011.73,2041.99,3340.98,3249.02,3486.27,500.01,494.69,43.89,0000 0000 0000 0000 000000
2014-09-19 10:56:47,-0.00,0.33,0.00,22.79,26.27,28.79,9.48,40.43,1011.72,2041.99,3340.99,3249.02,3486.56,499.58,494.20,43.93,0000 0000 0000 0000 000000
2014-09-19 11:01:47,0.00,0.33,0.00,22.79,26.27,28.84,9.47,40.26,1011.72,2041.99,3340.98,3249.06,3486.55,499.64,494.50,43.97,0000 0000 0000 0000 000000
2014-09-19 11:06:48,0.00,0.33,0.00,22.83,26.27,28.77,9.51,40.30,1011.73,2041.99,3340.97,3249.05,3486.43,499.83,494.44,44.01,0000 0000 0000 0000 000000
2014-09-19 11:11:49,-0.01,0.33,0.00,22.86,26.27,28.79,9.48,40.11,1011.73,2041.99,3340.98,3249.13,3486.49,499.94,494.48,44.06,0000 0000 0000 0000 000000
2014-09-19 11:16:50,0.01,0.33,0.00,22.82,26.27,28.84,9.54,40.17,1011.74,2041.99,3340.87,3249.07,3486.22,499.94,494.44,44.10,0000 0000 0000 0000 000000
2014-09-19 11:21:51,0.01,0.33,0.00,22.77,26.27,28.79,9.51,40.21,1011.78,2041.99,3340.61,3249.02,3486.04,500.04,494.73,44.14,0000 0000 0000 0000 000000
2014-09-19 11:26:52,-0.00,0.33,0.00,22.74,26.27,28.84,9.48,40.30,1011.87,2041.99,3340.33,3249.03,3486.01,499.70,494.66,44.18,0000 0000 0000 0000 000000
2014-09-19 11:31:54,-0.00,0.33,0.00,22.79,26.27,28.88,9.54,40.19,1011.92,2041.99,3340.32,3249.02,3486.02,499.76,494.74,44.22,0000 0000 0000 0000 000000
2014-09-19 11:36:55,0.00,0.33,0.00,22.73,26.27,28.89,9.51,40.21,1011.83,2041.99,3340.42,3249.02,3486.01,500.08,494.78,44.26,0000 0000 0000 0000 000000
2014-09-19 11:41:56,0.00,0.33,0.00,22.69,26.27,28.88,9.52,40.35,1011.92,2041.99,3340.34,3249.01,3486.03,500.03,495.02,44.30,0000 0000 0000 0000 000000
2014-09-19 11:46:58,0.00,0.33,0.00,22.70,26.27,28.94,9.59,40.38,1011.87,2041.99,3340.13,3249.00,3486.00,500.08,494.96,44.35,0000 0000 0000 0000 000000
2014-09-19 11:51:59,-0.00,0.33,0.00,22.75,26.27,28.94,9.49,40.15,1011.85,2041.99,3340.19,3249.01,3486.02,500.06,494.62,44.39,0000 0000 0000 0000 000000
2014-09-19 11:57:00,0.00,0.33,0.00,22.81,26.27,28.85,9.53,40.16,1011.83,2041.99,3340.19,3249.01,3486.02,500.05,494.74,44.43,0000 0000 0000 0000 000000
2014-09-19 12:02:01,0.00,0.33,0.00,22.74,26.26,28.88,9.51,40.22,1011.82,2041.99,3340.06,3249.00,3486.00,500.36,495.14,44.47,0000 0000 0000 0000 000000
2014-09-19 12:07:02,0.00,0.33,0.00,22.70,26.26,28.90,9.59,40.33,1011.77,2041.99,3340.04,3249.00,3486.00,500.36,495.23,44.51,0000 0000 0000 0000 000000
2014-09-19 12:12:03,0.00,0.33,0.00,22.77,26.26,28.86,9.53,40.23,1011.75,2041.99,3340.02,3249.00,3486.00,499.76,494.59,44.55,0000 0000 0000 0000 000000
2014-09-19 12:17:04,0.00,0.33,0.00,22.79,26.26,28.91,9.60,40.27,1011.78,2041.99,3340.01,3249.00,3486.00,500.24,495.09,44.60,0000 0000 0000 0000 000000
2014-09-19 12:22:05,0.00,0.33,0.00,22.75,26.26,28.90,9.55,40.17,1011.79,2041.99,3340.00,3249.01,3485.99,500.10,494.83,44.64,0000 0000 0000 0000 000000
2014-09-19 12:27:06,0.00,0.33,0.00,22.72,26.26,28.89,9.55,40.33,1011.78,2041.99,3340.01,3249.00,3485.99,500.03,494.72,44.68,0000 0000 0000 0000 000000
2014-09-19 12:32:07,0.00,0.33,0.00,22.77,26.26,28.92,9.56,40.15,1011.76,2041.99,3340.01,3249.00,3485.99,500.38,495.30,44.72,0000 0000 0000 0000 000000
2014-09-19 12:37:09,0.00,0.33,0.00,22.77,26.27,28.91,9.54,40.29,1011.75,2041.99,3340.00,3249.00,3485.99,499.91,494.66,44.76,0000 0000 0000 0000 000000
2014-09-19 12:42:09,0.00,0.33,0.00,22.80,26.27,28.86,9.49,40.27,1011.75,2041.99,3340.00,3249.00,3485.99,499.84,494.59,44.80,0000 0000 0000 0000 000000
2014-09-19 12:47:10,0.00,0.33,0.00,22.74,26.27,28.86,9.53,40.13,1011.74,2042.00,3340.00,3249.00,3485.99,500.07,494.76,44.85,0000 0000 0000 0000 000000
2014-09-19 12:52:12,0.00,0.33,0.00,22.74,26.27,28.94,9.60,40.21,1011.74,2042.00,3340.00,3249.00,3485.99,500.30,495.07,44.89,0000 0000 0000 0000 000000
2014-09-19 12:57:13,0.00,0.33,0.00,22.69,26.27,28.97,9.58,40.30,1011.74,2042.00,3340.00,3249.00,3485.99,500.26,495.08,44.93,0000 0000 0000 0000 000000
2014-09-19 13:02:14,0.00,0.33,0.00,22.74,26.27,28.96,9.56,40.30,1011.73,2042.00,3340.00,3249.00,3485.97,499.99,494.75,44.97,0000 0000 0000 0000 000000